| time (UTC) | temp C | wind direction | speed KPH | gust KPH | rain 1hr cm | rain 24hr cm | rain mn cm | humidity % | barometer mb |
| 20260903081140 | 23 | 96 | 0.0 | 0.0 | 0.00 | 0.00 | 0.00 | 90 | 1023.9 |
| 20260903080603 | 23 | 96 | 0.0 | 0.0 | 0.00 | 0.00 | 0.00 | 89 | 1023.9 |
| 20260903080039 | 23 | 96 | 0.0 | 0.0 | 0.00 | 0.00 | 0.00 | 89 | 1023.9 |
| 20260903075519 | 23 | 96 | 0.0 | 0.0 | 0.00 | 0.00 | 0.00 | 89 | 1024.0 |
| 20260903075225 | 23 | 96 | 0.0 | 0.0 | 0.00 | 0.00 | 0.00 | 89 | 1023.9 |
| 20260903074426 | 23 | 95 | 0.0 | 0.0 | 0.00 | 0.00 | 0.00 | 89 | 1023.9 |
| 20260903073915 | 23 | 95 | 0.0 | 0.0 | 0.00 | 0.00 | 0.00 | 88 | 1024.0 |
| 20260903073411 | 23 | 95 | 0.0 | 0.0 | 0.00 | 0.00 | 0.00 | 88 | 1024.0 |
| 20260903072846 | 23 | 95 | 0.0 | 0.0 | 0.00 | 0.00 | 0.00 | 88 | 1024.1 |
| 20260903072319 | 23 | 96 | 0.0 | 0.0 | 0.00 | 0.00 | 0.00 | 88 | 1024.2 |
| 20260903071755 | 23 | 78 | 0.0 | 0.0 | 0.00 | 0.00 | 0.00 | 88 | 1024.2 |
| 20260903071227 | 23 | 82 | 0.0 | 0.0 | 0.00 | 0.03 | 0.00 | 88 | 1024.3 |
| 20260903070713 | 23 | 76 | 0.0 | 0.0 | 0.00 | 0.05 | 0.00 | 88 | 1024.2 |
| 20260903070147 | 23 | 74 | 0.0 | 0.0 | 0.00 | 0.08 | 0.00 | 88 | 1024.2 |
| 20260903065622 | 23 | 74 | 0.0 | 0.0 | 0.00 | 0.10 | 0.00 | 88 | 1024.1 |
| 20260903065056 | 23 | 72 | 0.0 | 0.0 | 0.00 | 0.10 | 0.00 | 88 | 1024.2 |
| 20260903064527 | 23 | 65 | 0.0 | 0.0 | 0.00 | 0.13 | 0.00 | 88 | 1024.3 |
| 20260903064002 | 23 | 65 | 0.0 | 0.0 | 0.00 | 0.13 | 0.00 | 87 | 1024.4 |
| 20260903063503 | 23 | 65 | 0.0 | 0.0 | 0.00 | 0.13 | 0.00 | 87 | 1024.4 |
| 20260903062940 | 23 | 65 | 0.0 | 0.0 | 0.00 | 0.15 | 0.00 | 87 | 1024.3 |
| 20260903062411 | 23 | 65 | 0.0 | 0.0 | 0.00 | 0.15 | 0.00 | 87 | 1024.4 |
| 20260903061911 | 23 | 65 | 0.0 | 0.0 | 0.00 | 0.15 | 0.00 | 87 | 1024.4 |
| 20260903061343 | 24 | 65 | 0.0 | 0.0 | 0.00 | 0.15 | 0.00 | 87 | 1024.4 |
| 20260903060818 | 24 | 65 | 0.0 | 0.0 | 0.00 | 0.15 | 0.00 | 87 | 1024.4 |
| 20260903060555 | 24 | 65 | 0.0 | 0.0 | 0.00 | 0.15 | 0.00 | 87 | 1024.4 |
| 20260903055754 | 24 | 65 | 0.0 | 0.0 | 0.00 | 0.15 | 0.00 | 86 | 1024.3 |
| 20260903055250 | 24 | 63 | 0.0 | 0.0 | 0.00 | 0.15 | 0.00 | 86 | 1024.4 |
| 20260903054725 | 24 | 136 | 0.0 | 0.0 | 0.00 | 0.15 | 0.00 | 86 | 1024.5 |
| 20260903054224 | 24 | 198 | 0.0 | 0.0 | 0.00 | 0.15 | 0.00 | 86 | 1024.5 |
| 20260903053655 | 24 | 200 | 0.0 | 0.0 | 0.00 | 0.15 | 0.00 | 86 | 1024.4 |
| 20260903053147 | 24 | 222 | 0.0 | 0.0 | 0.00 | 0.15 | 0.00 | 85 | 1024.4 |
| 20260903052627 | 24 | 222 | 0.0 | 0.0 | 0.00 | 0.15 | 0.00 | 85 | 1024.4 |
| 20260903052400 | 24 | 221 | 0.0 | 0.0 | 0.00 | 0.15 | 0.00 | 84 | 1024.4 |
| 20260903052125 | 24 | 222 | 0.0 | 0.0 | 0.00 | 0.15 | 0.00 | 85 | 1024.4 |
| 20260903051057 | 25 | 221 | 0.0 | 0.0 | 0.00 | 0.15 | 0.00 | 84 | 1024.4 |
| 20260903050554 | 25 | 221 | 0.0 | 0.0 | 0.00 | 0.15 | 0.00 | 84 | 1024.4 |
| 20260903050325 | 25 | 221 | 0.0 | 0.0 | 0.00 | 0.15 | 0.00 | 83 | 1024.5 |
| 20260903045825 | 25 | 221 | 0.0 | 0.0 | 0.00 | 0.15 | 0.15 | 83 | 1024.5 |
| 20260903045049 | 25 | 221 | 0.0 | 0.0 | 0.00 | 0.15 | 0.15 | 82 | 1024.5 |
| 20260903044547 | 25 | 221 | 0.0 | 0.0 | 0.00 | 0.15 | 0.15 | 82 | 1024.6 |
| 20260903044022 | 25 | 221 | 0.0 | 0.0 | 0.00 | 0.15 | 0.15 | 82 | 1024.5 |
| 20260903043728 | 25 | 221 | 0.0 | 0.0 | 0.00 | 0.15 | 0.15 | 81 | 1024.5 |
| 20260903042948 | 25 | 221 | 0.0 | 0.0 | 0.00 | 0.15 | 0.15 | 81 | 1024.6 |
| 20260903042444 | 25 | 221 | 0.0 | 0.0 | 0.00 | 0.15 | 0.15 | 81 | 1024.8 |
| 20260903042211 | 25 | 221 | 0.0 | 0.0 | 0.00 | 0.15 | 0.15 | 80 | 1024.8 |
| 20260903041413 | 25 | 221 | 0.0 | 0.0 | 0.00 | 0.15 | 0.15 | 80 | 1024.8 |
| 20260903040911 | 25 | 224 | 0.0 | 0.0 | 0.00 | 0.15 | 0.15 | 80 | 1024.8 |
| 20260903040409 | 25 | 224 | 0.0 | 0.0 | 0.00 | 0.15 | 0.15 | 79 | 1024.8 |
| 20260903035907 | 25 | 224 | 0.0 | 0.0 | 0.00 | 0.15 | 0.15 | 79 | 1024.9 |
| 20260903035401 | 25 | 224 | 0.0 | 0.0 | 0.00 | 0.15 | 0.15 | 78 | 1024.9 |
| 20260903034859 | 25 | 224 | 0.0 | 0.0 | 0.00 | 0.15 | 0.15 | 78 | 1024.8 |
| 20260903034342 | 26 | 225 | 0.0 | 0.0 | 0.00 | 0.15 | 0.15 | 77 | 1024.9 |
| 20260903033838 | 26 | 225 | 0.0 | 0.0 | 0.00 | 0.15 | 0.15 | 77 | 1024.9 |
| 20260903033333 | 26 | 225 | 0.0 | 0.0 | 0.00 | 0.15 | 0.15 | 77 | 1024.9 |
| 20260903032826 | 26 | 224 | 0.0 | 0.0 | 0.00 | 0.15 | 0.15 | 77 | 1024.9 |
| 20260903032306 | 26 | 224 | 0.0 | 0.0 | 0.00 | 0.15 | 0.15 | 76 | 1024.9 |
| 20260903031806 | 26 | 221 | 0.0 | 0.0 | 0.00 | 0.15 | 0.15 | 76 | 1024.9 |
| 20260903031303 | 26 | 221 | 0.0 | 0.0 | 0.00 | 0.15 | 0.15 | 75 | 1024.9 |
| 20260903031035 | 26 | 221 | 0.0 | 0.0 | 0.00 | 0.15 | 0.15 | 75 | 1024.9 |
| 20260903030244 | 26 | 221 | 0.0 | 0.0 | 0.00 | 0.15 | 0.15 | 74 | 1025.0 |
| 20260903025748 | 26 | 221 | 0.0 | 0.0 | 0.00 | 0.15 | 0.15 | 74 | 1024.9 |
| 20260903025235 | 26 | 221 | 0.0 | 0.0 | 0.00 | 0.15 | 0.15 | 73 | 1024.9 |
| 20260903024738 | 27 | 221 | 0.0 | 0.0 | 0.00 | 0.15 | 0.15 | 72 | 1024.9 |
| 20260903024212 | 27 | 224 | 0.0 | 0.0 | 0.00 | 0.15 | 0.15 | 71 | 1024.9 |
| 20260903023928 | 27 | 224 | 0.0 | 0.0 | 0.00 | 0.15 | 0.15 | 70 | 1024.9 |
| 20260903023202 | 27 | 224 | 0.0 | 0.0 | 0.00 | 0.15 | 0.15 | 70 | 1024.8 |
| 20260903022650 | 27 | 224 | 0.0 | 0.0 | 0.00 | 0.15 | 0.15 | 69 | 1024.8 |
| 20260903022352 | 27 | 224 | 0.0 | 0.0 | 0.00 | 0.15 | 0.15 | 69 | 1024.8 |
| 20260903021618 | 27 | 224 | 0.0 | 0.0 | 0.00 | 0.15 | 0.15 | 68 | 1024.8 |
| 20260903021115 | 27 | 224 | 0.0 | 0.0 | 0.00 | 0.15 | 0.15 | 68 | 1024.8 |
| 20260903020614 | 27 | 224 | 0.0 | 0.0 | 0.00 | 0.15 | 0.15 | 67 | 1024.9 |
| 20260903020048 | 27 | 224 | 0.0 | 0.0 | 0.00 | 0.15 | 0.15 | 67 | 1024.8 |
| 20260903015548 | 27 | 224 | 0.0 | 0.0 | 0.00 | 0.15 | 0.15 | 67 | 1024.8 |
| 20260903015051 | 27 | 224 | 0.0 | 0.0 | 0.00 | 0.15 | 0.15 | 67 | 1024.8 |
| 20260903014753 | 28 | 224 | 0.0 | 0.0 | 0.00 | 0.15 | 0.15 | 66 | 1024.8 |
| 20260903014021 | 28 | 224 | 0.0 | 0.0 | 0.00 | 0.15 | 0.15 | 65 | 1024.6 |
| 20260903013456 | 28 | 224 | 0.0 | 0.0 | 0.00 | 0.15 | 0.15 | 65 | 1024.6 |
| 20260903012935 | 28 | 224 | 0.0 | 0.0 | 0.00 | 0.15 | 0.15 | 64 | 1024.5 |
| 20260903012706 | 28 | 224 | 0.0 | 0.0 | 0.00 | 0.15 | 0.15 | 64 | 1024.5 |
| 20260903011932 | 28 | 224 | 0.0 | 0.0 | 0.00 | 0.15 | 0.15 | 64 | 1024.4 |
| 20260903011431 | 28 | 224 | 0.0 | 0.0 | 0.00 | 0.15 | 0.15 | 64 | 1024.3 |
| 20260903010905 | 28 | 224 | 0.0 | 0.0 | 0.00 | 0.15 | 0.15 | 64 | 1024.4 |
| 20260903010337 | 28 | 224 | 0.0 | 0.0 | 0.00 | 0.15 | 0.15 | 63 | 1024.3 |
| 20260903005835 | 28 | 224 | 0.0 | 0.0 | 0.00 | 0.15 | 0.15 | 63 | 1024.2 |
| 20260903005309 | 28 | 224 | 0.0 | 0.0 | 0.00 | 0.15 | 0.15 | 63 | 1024.2 |
| 20260903004741 | 28 | 224 | 0.0 | 0.0 | 0.00 | 0.15 | 0.15 | 63 | 1024.1 |
| 20260903004240 | 29 | 223 | 0.0 | 0.0 | 0.00 | 0.15 | 0.15 | 62 | 1024.2 |
| 20260903003941 | 29 | 223 | 0.0 | 0.0 | 0.00 | 0.15 | 0.15 | 61 | 1024.1 |
| 20260903003440 | 29 | 223 | 0.0 | 0.0 | 0.00 | 0.15 | 0.15 | 61 | 1024.2 |
| 20260903002641 | 30 | 223 | 0.0 | 0.0 | 0.00 | 0.15 | 0.15 | 60 | 1024.2 |
| 20260903002133 | 30 | 223 | 0.0 | 0.0 | 0.00 | 0.15 | 0.15 | 60 | 1024.2 |
| 20260903001605 | 30 | 223 | 0.0 | 0.0 | 0.00 | 0.15 | 0.15 | 59 | 1024.2 |
| 20260903001334 | 30 | 223 | 0.0 | 0.0 | 0.00 | 0.15 | 0.15 | 59 | 1024.3 |
| 20260903001038 | 30 | 223 | 0.0 | 0.0 | 0.00 | 0.15 | 0.15 | 59 | 1024.2 |
| 20260903000034 | 30 | 223 | 0.0 | 0.0 | 0.00 | 0.15 | 0.15 | 58 | 1024.2 |
| 20260902235505 | 30 | 223 | 0.0 | 0.0 | 0.00 | 0.15 | 0.15 | 58 | 1024.3 |
| 20260902234955 | 30 | 223 | 0.0 | 0.0 | 0.00 | 0.15 | 0.15 | 57 | 1024.3 |
| 20260902234451 | 31 | 223 | 0.0 | 0.0 | 0.00 | 0.15 | 0.15 | 56 | 1024.3 |
| 20260902233928 | 31 | 223 | 0.0 | 0.0 | 0.00 | 0.15 | 0.15 | 56 | 1024.2 |
| 20260902233631 | 31 | 223 | 0.0 | 0.0 | 0.00 | 0.15 | 0.15 | 55 | 1024.3 |
| 20260902232858 | 31 | 223 | 0.0 | 0.0 | 0.00 | 0.15 | 0.15 | 55 | 1024.4 |
| 20260902232355 | 31 | 223 | 0.0 | 0.0 | 0.00 | 0.15 | 0.15 | 54 | 1024.3 |
| 20260902231900 | 31 | 223 | 0.0 | 0.0 | 0.00 | 0.15 | 0.15 | 54 | 1024.4 |
| 20260902231331 | 32 | 223 | 0.0 | 0.0 | 0.00 | 0.15 | 0.15 | 52 | 1024.3 |
| 20260902230830 | 32 | 223 | 0.0 | 0.0 | 0.00 | 0.15 | 0.15 | 51 | 1024.4 |
| 20260902230304 | 32 | 223 | 0.0 | 0.0 | 0.00 | 0.15 | 0.15 | 51 | 1024.4 |
| 20260902225736 | 33 | 223 | 0.0 | 0.0 | 0.00 | 0.15 | 0.15 | 51 | 1024.4 |
| 20260902225502 | 33 | 223 | 0.0 | 0.0 | 0.00 | 0.15 | 0.15 | 50 | 1024.3 |
| 20260902224951 | 33 | 223 | 0.0 | 0.0 | 0.00 | 0.15 | 0.15 | 51 | 1024.3 |
| 20260902224218 | 33 | 223 | 0.0 | 0.0 | 0.00 | 0.15 | 0.15 | 50 | 1024.4 |
| 20260902223650 | 33 | 223 | 0.0 | 0.0 | 0.00 | 0.15 | 0.15 | 51 | 1024.4 |
| 20260902223124 | 33 | 224 | 0.0 | 0.0 | 0.00 | 0.15 | 0.15 | 51 | 1024.4 |
| 20260902222555 | 33 | 223 | 0.0 | 0.0 | 0.00 | 0.15 | 0.15 | 50 | 1024.5 |
| 20260902222051 | 33 | 223 | 0.0 | 0.0 | 0.00 | 0.15 | 0.15 | 50 | 1024.4 |
| 20260902221038 | 33 | 229 | 0.0 | 0.0 | 0.00 | 0.15 | 0.15 | 49 | 1024.4 |
| 20260902220807 | 33 | 229 | 0.0 | 0.0 | 0.00 | 0.15 | 0.15 | 49 | 1024.4 |
| 20260902220247 | 33 | 229 | 0.0 | 0.0 | 0.00 | 0.15 | 0.15 | 49 | 1024.4 |
| 20260902215746 | 33 | 184 | 0.0 | 0.0 | 0.00 | 0.15 | 0.15 | 50 | 1024.4 |
| 20260902215014 | 33 | 219 | 0.0 | 0.0 | 0.00 | 0.15 | 0.15 | 49 | 1024.4 |
| 20260902214515 | 33 | 217 | 0.0 | 0.0 | 0.00 | 0.15 | 0.15 | 49 | 1024.6 |
| 20260902214003 | 33 | 192 | 0.0 | 0.0 | 0.00 | 0.15 | 0.15 | 50 | 1024.6 |
| 20260902213506 | 33 | 87 | 0.0 | 0.0 | 0.00 | 0.15 | 0.15 | 50 | 1024.5 |
| 20260902213209 | 33 | 231 | 0.0 | 1.6 | 0.00 | 0.15 | 0.15 | 48 | 1024.8 |
| 20260902212707 | 33 | 231 | 0.0 | 1.6 | 0.00 | 0.15 | 0.15 | 49 | 1024.8 |
| 20260902211933 | 33 | 195 | 0.0 | 0.0 | 0.00 | 0.15 | 0.15 | 47 | 1024.8 |
| 20260902211704 | 33 | 129 | 0.0 | 0.0 | 0.00 | 0.15 | 0.15 | 49 | 1024.8 |
| 20260902211200 | 33 | 129 | 0.0 | 0.0 | 0.00 | 0.15 | 0.15 | 49 | 1024.9 |
| 20260902210655 | 32 | 77 | 0.0 | 0.0 | 0.00 | 0.15 | 0.15 | 50 | 1024.9 |
| 20260902205921 | 32 | 77 | 0.0 | 0.0 | 0.00 | 0.15 | 0.15 | 50 | 1024.9 |
| 20260902205422 | 33 | 95 | 0.0 | 0.0 | 0.00 | 0.15 | 0.15 | 49 | 1024.9 |
| 20260902204900 | 33 | 102 | 0.0 | 0.0 | 0.00 | 0.15 | 0.15 | 50 | 1024.9 |
| 20260902204352 | 32 | 38 | 0.0 | 0.0 | 0.00 | 0.15 | 0.15 | 50 | 1024.8 |
| 20260902203851 | 32 | 125 | 0.0 | 0.0 | 0.00 | 0.15 | 0.15 | 48 | 1024.9 |
| 20260902203613 | 33 | 230 | 0.0 | 0.0 | 0.00 | 0.15 | 0.15 | 50 | 1024.9 |
| 20260902203113 | 32 | 196 | 0.0 | 0.0 | 0.00 | 0.15 | 0.15 | 50 | 1024.8 |
| 20260902202615 | 32 | 31 | 0.0 | 0.0 | 0.00 | 0.15 | 0.15 | 51 | 1024.8 |
| 20260902201824 | 32 | 36 | 0.0 | 0.0 | 0.00 | 0.15 | 0.15 | 50 | 1024.9 |
| 20260902201313 | 32 | 61 | 0.0 | 0.0 | 0.00 | 0.15 | 0.15 | 51 | 1025.1 |
| 20260902201029 | 32 | 53 | 0.0 | 0.0 | 0.00 | 0.15 | 0.15 | 52 | 1025.1 |
| 20260902200300 | 31 | 43 | 0.0 | 0.0 | 0.00 | 0.15 | 0.15 | 53 | 1025.2 |
| 20260902200249 | 31 | 28 | 0.0 | 0.0 | 0.00 | 0.15 | 0.15 | 53 | 1025.3 |
| 20260902195246 | 31 | 28 | 0.0 | 0.0 | 0.00 | 0.15 | 0.15 | 52 | 1025.4 |
| 20260902194748 | 31 | 25 | 0.0 | 0.0 | 0.00 | 0.15 | 0.15 | 52 | 1025.5 |
| 20260902194242 | 31 | 65 | 0.0 | 0.0 | 0.00 | 0.15 | 0.15 | 53 | 1025.6 |
| 20260902193739 | 31 | 13 | 0.0 | 0.0 | 0.00 | 0.15 | 0.15 | 51 | 1025.6 |
| 20260902193242 | 31 | 273 | 0.0 | 0.0 | 0.00 | 0.15 | 0.15 | 53 | 1025.7 |
| 20260902192736 | 31 | 30 | 0.0 | 0.0 | 0.00 | 0.15 | 0.15 | 53 | 1025.7 |
| 20260902192233 | 31 | 41 | 0.0 | 0.0 | 0.00 | 0.15 | 0.15 | 54 | 1025.7 |
| 20260902191736 | 30 | 41 | 0.0 | 0.0 | 0.00 | 0.15 | 0.15 | 55 | 1025.7 |
| 20260902191506 | 31 | 28 | 0.0 | 0.0 | 0.00 | 0.15 | 0.15 | 54 | 1025.7 |
| 20260902190705 | 31 | 61 | 0.0 | 0.0 | 0.00 | 0.15 | 0.15 | 54 | 1025.7 |
| 20260902190149 | 31 | 55 | 0.0 | 0.0 | 0.00 | 0.15 | 0.15 | 57 | 1025.7 |
| 20260902185639 | 31 | 159 | 0.0 | 0.0 | 0.00 | 0.15 | 0.15 | 55 | 1025.8 |
| 20260902185137 | 31 | 170 | 0.0 | 0.0 | 0.00 | 0.15 | 0.15 | 54 | 1025.8 |
| 20260902184635 | 31 | 205 | 0.0 | 0.0 | 0.00 | 0.15 | 0.15 | 54 | 1025.9 |
| 20260902184133 | 31 | 226 | 0.0 | 0.0 | 0.00 | 0.15 | 0.15 | 54 | 1025.9 |
| 20260902183607 | 30 | 12 | 0.0 | 0.0 | 0.00 | 0.15 | 0.15 | 56 | 1026.0 |
| 20260902183101 | 30 | 32 | 0.0 | 0.0 | 0.00 | 0.15 | 0.15 | 58 | 1026.0 |
| 20260902182559 | 30 | 29 | 0.0 | 0.0 | 0.00 | 0.15 | 0.15 | 57 | 1025.9 |
| 20260902182101 | 30 | 26 | 0.0 | 0.0 | 0.00 | 0.15 | 0.15 | 58 | 1025.9 |
| 20260902181547 | 29 | 88 | 0.0 | 0.0 | 0.00 | 0.15 | 0.15 | 58 | 1025.9 |
| 20260902181045 | 29 | 87 | 0.0 | 0.0 | 0.00 | 0.15 | 0.15 | 62 | 1025.9 |
| 20260902180546 | 29 | 94 | 0.0 | 0.0 | 0.00 | 0.15 | 0.15 | 62 | 1026.1 |
| 20260902180040 | 29 | 34 | 0.0 | 0.0 | 0.00 | 0.15 | 0.15 | 60 | 1026.2 |
| 20260902175540 | 29 | 323 | 0.0 | 0.0 | 0.00 | 0.15 | 0.15 | 60 | 1026.3 |
| 20260902175012 | 28 | 5 | 0.0 | 0.0 | 0.00 | 0.15 | 0.15 | 61 | 1026.2 |
| 20260902174515 | 28 | 29 | 0.0 | 0.0 | 0.00 | 0.15 | 0.15 | 62 | 1026.2 |
| 20260902173946 | 28 | 90 | 0.0 | 0.0 | 0.00 | 0.15 | 0.15 | 62 | 1026.3 |
| 20260902173439 | 28 | 0 | 0.0 | 0.0 | 0.00 | 0.15 | 0.15 | 62 | 1026.5 |
| 20260902172910 | 28 | 21 | 0.0 | 0.0 | 0.00 | 0.15 | 0.15 | 62 | 1026.5 |
| 20260902172343 | 28 | 21 | 0.0 | 0.0 | 0.00 | 0.15 | 0.15 | 62 | 1026.6 |
| 20260902171819 | 28 | 139 | 0.0 | 0.0 | 0.00 | 0.15 | 0.15 | 63 | 1026.8 |
| 20260902171250 | 28 | 92 | 0.0 | 0.0 | 0.00 | 0.15 | 0.15 | 63 | 1026.9 |
| 20260902171026 | 27 | 134 | 0.0 | 0.0 | 0.00 | 0.15 | 0.15 | 65 | 1027.0 |
| 20260902170212 | 27 | 107 | 0.0 | 0.0 | 0.00 | 0.15 | 0.15 | 65 | 1027.2 |
| 20260902165709 | 27 | 129 | 0.0 | 0.0 | 0.00 | 0.15 | 0.15 | 65 | 1027.4 |
| 20260902165208 | 27 | 219 | 0.0 | 0.0 | 0.00 | 0.15 | 0.15 | 64 | 1027.3 |
| 20260902164642 | 27 | 86 | 0.0 | 0.0 | 0.00 | 0.15 | 0.15 | 66 | 1027.3 |
| 20260902164118 | 26 | 86 | 0.0 | 0.0 | 0.00 | 0.15 | 0.15 | 67 | 1027.2 |
| 20260902163621 | 26 | 84 | 0.0 | 0.0 | 0.00 | 0.15 | 0.15 | 68 | 1026.9 |
| 20260902163102 | 26 | 84 | 0.0 | 0.0 | 0.00 | 0.15 | 0.15 | 69 | 1026.9 |
| 20260902162600 | 25 | 5 | 0.0 | 0.0 | 0.00 | 0.15 | 0.15 | 68 | 1026.9 |
| 20260902162052 | 25 | 107 | 0.0 | 0.0 | 0.00 | 0.15 | 0.15 | 69 | 1026.9 |
| 20260902161550 | 25 | 54 | 0.0 | 0.0 | 0.00 | 0.15 | 0.15 | 70 | 1026.8 |
| 20260902161021 | 26 | 100 | 0.0 | 0.0 | 0.00 | 0.15 | 0.15 | 68 | 1026.8 |
| 20260902160518 | 26 | 100 | 0.0 | 0.0 | 0.00 | 0.15 | 0.15 | 68 | 1026.8 |
| 20260902160012 | 26 | 105 | 0.0 | 0.0 | 0.00 | 0.15 | 0.15 | 69 | 1026.7 |
| 20260902155449 | 26 | 241 | 0.0 | 0.0 | 0.00 | 0.15 | 0.15 | 69 | 1026.7 |
| 20260902154949 | 25 | 76 | 0.0 | 0.0 | 0.00 | 0.15 | 0.15 | 71 | 1026.7 |
| 20260902154453 | 25 | 75 | 0.0 | 0.0 | 0.00 | 0.15 | 0.15 | 72 | 1026.5 |
| 20260902154156 | 24 | 71 | 0.0 | 0.0 | 0.00 | 0.15 | 0.15 | 74 | 1026.5 |
| 20260902153423 | 24 | 81 | 0.0 | 0.0 | 0.00 | 0.15 | 0.15 | 76 | 1026.5 |
| 20260902152910 | 23 | 28 | 0.0 | 0.0 | 0.00 | 0.15 | 0.15 | 77 | 1026.5 |
| 20260902152343 | 23 | 79 | 0.0 | 0.0 | 0.00 | 0.15 | 0.15 | 77 | 1026.6 |
| 20260902152110 | 23 | 29 | 0.0 | 0.0 | 0.00 | 0.15 | 0.15 | 77 | 1026.4 |
| 20260902151338 | 23 | 22 | 0.0 | 0.0 | 0.00 | 0.15 | 0.15 | 78 | 1026.3 |
| 20260902150834 | 23 | 24 | 0.0 | 0.0 | 0.00 | 0.15 | 0.15 | 78 | 1026.3 |
| 20260902150330 | 22 | 80 | 0.0 | 0.0 | 0.00 | 0.15 | 0.15 | 79 | 1026.3 |
| 20260902145807 | 22 | 68 | 0.0 | 0.0 | 0.00 | 0.15 | 0.15 | 79 | 1026.4 |
| 20260902145238 | 22 | 96 | 0.0 | 0.0 | 0.00 | 0.15 | 0.15 | 81 | 1026.4 |
| 20260902144735 | 22 | 68 | 0.0 | 0.0 | 0.00 | 0.15 | 0.15 | 82 | 1026.4 |
| 20260902144502 | 21 | 41 | 0.0 | 0.0 | 0.00 | 0.15 | 0.15 | 82 | 1026.4 |
| 20260902143730 | 21 | 108 | 0.0 | 0.0 | 0.00 | 0.15 | 0.15 | 82 | 1026.4 |
| 20260902143226 | 21 | 74 | 0.0 | 0.0 | 0.00 | 0.15 | 0.15 | 83 | 1026.4 |
| 20260902142716 | 21 | 34 | 0.0 | 0.0 | 0.00 | 0.15 | 0.15 | 83 | 1026.5 |
| 20260902142213 | 21 | 67 | 0.0 | 0.0 | 0.00 | 0.15 | 0.15 | 84 | 1026.6 |
| 20260902141931 | 21 | 78 | 0.0 | 0.0 | 0.00 | 0.15 | 0.15 | 85 | 1026.7 |
| 20260902141132 | 20 | 76 | 0.0 | 0.0 | 0.00 | 0.15 | 0.15 | 86 | 1026.7 |
| 20260902140630 | 20 | 26 | 0.0 | 0.0 | 0.00 | 0.15 | 0.15 | 87 | 1026.8 |
| 20260902140113 | 20 | 99 | 0.0 | 0.0 | 0.00 | 0.15 | 0.15 | 88 | 1026.7 |
| 20260902135617 | 20 | 5 | 0.0 | 0.0 | 0.00 | 0.15 | 0.15 | 87 | 1026.8 |
| 20260902135051 | 20 | 30 | 0.0 | 0.0 | 0.00 | 0.15 | 0.15 | 87 | 1026.8 |
| 20260902134522 | 20 | 59 | 0.0 | 0.0 | 0.00 | 0.15 | 0.15 | 87 | 1026.6 |
| 20260902134021 | 20 | 90 | 0.0 | 0.0 | 0.00 | 0.15 | 0.15 | 88 | 1026.5 |
| 20260902133455 | 20 | 95 | 0.0 | 0.0 | 0.00 | 0.15 | 0.15 | 89 | 1026.5 |
| 20260902132955 | 19 | 56 | 0.0 | 0.0 | 0.00 | 0.15 | 0.15 | 90 | 1026.6 |
| 20260902132454 | 19 | 26 | 0.0 | 0.0 | 0.00 | 0.15 | 0.15 | 90 | 1026.5 |
| 20260902131947 | 19 | 23 | 0.0 | 0.0 | 0.00 | 0.15 | 0.15 | 90 | 1026.6 |
| 20260902131421 | 19 | 23 | 0.0 | 0.0 | 0.00 | 0.15 | 0.15 | 90 | 1026.6 |
| 20260902131123 | 19 | 74 | 0.0 | 0.0 | 0.00 | 0.15 | 0.15 | 90 | 1026.6 |
| 20260902130623 | 18 | 71 | 0.0 | 0.0 | 0.00 | 0.15 | 0.15 | 91 | 1026.6 |
| 20260902125830 | 18 | 71 | 0.0 | 0.0 | 0.00 | 0.15 | 0.15 | 92 | 1026.7 |
| 20260902125331 | 18 | 71 | 0.0 | 0.0 | 0.00 | 0.15 | 0.15 | 92 | 1026.7 |
| 20260902124824 | 18 | 71 | 0.0 | 0.0 | 0.00 | 0.15 | 0.15 | 92 | 1026.5 |
| 20260902124301 | 18 | 64 | 0.0 | 0.0 | 0.00 | 0.15 | 0.15 | 92 | 1026.6 |
| 20260902124008 | 18 | 101 | 0.0 | 0.0 | 0.00 | 0.15 | 0.15 | 92 | 1026.6 |
| 20260902123206 | 18 | 101 | 0.0 | 0.0 | 0.00 | 0.15 | 0.15 | 92 | 1026.5 |
| 20260902122933 | 18 | 100 | 0.0 | 0.0 | 0.00 | 0.15 | 0.15 | 92 | 1026.4 |
| 20260902122153 | 18 | 105 | 0.0 | 0.0 | 0.00 | 0.15 | 0.15 | 93 | 1026.3 |
| 20260902121644 | 18 | 90 | 0.0 | 0.0 | 0.00 | 0.15 | 0.15 | 93 | 1026.2 |
| 20260902121141 | 18 | 101 | 0.0 | 0.0 | 0.00 | 0.15 | 0.15 | 93 | 1026.2 |
| 20260902120634 | 18 | 106 | 0.0 | 0.0 | 0.00 | 0.15 | 0.15 | 93 | 1026.3 |
| 20260902120133 | 18 | 105 | 0.0 | 0.0 | 0.00 | 0.15 | 0.15 | 93 | 1026.3 |
| 20260902115628 | 18 | 115 | 0.0 | 0.0 | 0.00 | 0.15 | 0.15 | 93 | 1026.4 |
| 20260902115401 | 18 | 115 | 0.0 | 0.0 | 0.00 | 0.15 | 0.15 | 93 | 1026.5 |
| 20260902114605 | 18 | 120 | 0.0 | 0.0 | 0.00 | 0.15 | 0.15 | 93 | 1026.4 |
| 20260902114036 | 18 | 111 | 0.0 | 0.0 | 0.00 | 0.15 | 0.15 | 93 | 1026.4 |
| 20260902113535 | 18 | 111 | 0.0 | 0.0 | 0.00 | 0.15 | 0.15 | 93 | 1026.5 |
| 20260902113006 | 18 | 110 | 0.0 | 0.0 | 0.00 | 0.15 | 0.15 | 93 | 1026.4 |
| 20260902112502 | 18 | 96 | 0.0 | 0.0 | 0.00 | 0.15 | 0.15 | 93 | 1026.5 |
| 20260902111952 | 18 | 98 | 0.0 | 0.0 | 0.00 | 0.15 | 0.15 | 93 | 1026.5 |
| 20260902111448 | 18 | 111 | 0.0 | 0.0 | 0.00 | 0.15 | 0.15 | 94 | 1026.8 |
| 20260902110922 | 18 | 218 | 0.0 | 0.0 | 0.00 | 0.15 | 0.15 | 93 | 1027.2 |
| 20260902110420 | 18 | 217 | 0.0 | 0.0 | 0.00 | 0.15 | 0.15 | 93 | 1027.5 |
| 20260902105920 | 18 | 217 | 0.0 | 0.0 | 0.00 | 0.15 | 0.15 | 93 | 1027.6 |
| 20260902105400 | 18 | 217 | 0.0 | 0.0 | 0.00 | 0.15 | 0.15 | 93 | 1027.4 |
| 20260902104856 | 18 | 217 | 0.0 | 0.0 | 0.00 | 0.15 | 0.15 | 93 | 1027.3 |
| 20260902104358 | 18 | 217 | 0.0 | 0.0 | 0.00 | 0.15 | 0.15 | 93 | 1026.9 |
| 20260902103834 | 18 | 217 | 0.0 | 0.0 | 0.00 | 0.15 | 0.15 | 93 | 1026.8 |
| 20260902103310 | 18 | 206 | 0.0 | 0.0 | 0.00 | 0.15 | 0.15 | 92 | 1027.0 |
| 20260902102804 | 18 | 194 | 0.0 | 0.0 | 0.00 | 0.15 | 0.15 | 92 | 1027.3 |
| 20260902102307 | 18 | 227 | 0.0 | 0.0 | 0.00 | 0.15 | 0.15 | 92 | 1027.5 |
| 20260902101755 | 18 | 227 | 0.0 | 0.0 | 0.00 | 0.15 | 0.15 | 92 | 1027.6 |
| 20260902101232 | 18 | 227 | 0.0 | 0.0 | 0.00 | 0.15 | 0.15 | 92 | 1027.5 |
| 20260902101002 | 18 | 227 | 0.0 | 0.0 | 0.00 | 0.15 | 0.15 | 92 | 1027.5 |
| 20260902100229 | 18 | 231 | 0.0 | 0.0 | 0.00 | 0.15 | 0.15 | 91 | 1027.4 |
| 20260902095957 | 18 | 234 | 0.0 | 0.0 | 0.00 | 0.15 | 0.15 | 91 | 1027.2 |
| 20260902095458 | 18 | 223 | 0.0 | 1.6 | 0.00 | 0.15 | 0.15 | 91 | 1027.2 |
| 20260902094930 | 18 | 194 | 0.0 | 3.2 | 0.00 | 0.15 | 0.15 | 91 | 1026.9 |
| 20260902094136 | 18 | 192 | 0.0 | 3.2 | 0.00 | 0.15 | 0.15 | 90 | 1026.5 |
| 20260902093636 | 18 | 211 | 0.0 | 1.6 | 0.00 | 0.15 | 0.15 | 90 | 1026.3 |
| 20260902093129 | 18 | 197 | 0.0 | 1.6 | 0.00 | 0.15 | 0.15 | 90 | 1026.2 |
| 20260902092630 | 18 | 211 | 0.0 | 1.6 | 0.00 | 0.15 | 0.15 | 90 | 1026.1 |
| 20260902092120 | 18 | 175 | 0.0 | 0.0 | 0.00 | 0.15 | 0.15 | 90 | 1026.0 |
| 20260902091848 | 18 | 198 | 0.0 | 0.0 | 0.00 | 0.15 | 0.15 | 90 | 1026.1 |
| 20260902091055 | 18 | 217 | 0.0 | 3.2 | 0.00 | 0.15 | 0.15 | 90 | 1026.1 |
| 20260902090536 | 18 | 169 | 0.0 | 6.4 | 0.00 | 0.15 | 0.15 | 89 | 1026.2 |
| 20260902090312 | 18 | 176 | 0.0 | 6.4 | 0.00 | 0.15 | 0.15 | 89 | 1026.3 |
| 20260902085517 | 18 | 217 | 0.0 | 0.0 | 0.00 | 0.15 | 0.15 | 89 | 1025.9 |
| 20260902085016 | 18 | 217 | 0.0 | 0.0 | 0.00 | 0.15 | 0.15 | 89 | 1025.8 |
| 20260902084512 | 18 | 174 | 0.0 | 0.0 | 0.00 | 0.15 | 0.15 | 88 | 1026.0 |
| 20260902083951 | 18 | 107 | 0.0 | 16.1 | 0.00 | 0.15 | 0.15 | 88 | 1025.3 |
| 20260902083423 | 18 | 61 | 0.0 | 16.1 | 0.00 | 0.15 | 0.15 | 88 | 1024.8 |
| 20260902082857 | 18 | 30 | 0.0 | 0.0 | 0.00 | 0.15 | 0.15 | 88 | 1024.9 |
| 20260902082837 | 18 | 37 | 0.0 | 1.6 | 0.00 | 0.15 | 0.15 | 88 | 1025.2 |
| 20260902081812 | 18 | 27 | 0.0 | 1.6 | 0.00 | 0.15 | 0.15 | 89 | 1025.2 |
| 20260902081304 | 18 | 38 | 0.0 | 1.6 | 0.03 | 0.15 | 0.15 | 89 | 1025.6 |